Tracking 25998 objects as of 20-Aug-2022
HD Live streaming from Space Station
objects crossing your sky now

ESAIL

Track ESAIL now!
10-day predictions


NORAD ID: 46273
Int'l Code: 2020-061B
Perigee: 514.7 km
Apogee: 520.5 km
Inclination: 97.4 °
Period: 94.8 minutes
Semi major axis: 6888 km
RCS: Unknown
Launch date: September 3, 2020
Source: Canada (CA)
Launch site: FRENCH GUIANA (FRGUI)
aabbcc
Your satellite tracking list
Your tracking list is empty




NASA's NSSDC Master Catalog

Two Line Element Set (TLE):
1 46273U 20061B   22231.41712709  .00005433  00000-0  26680-3 0  9992
2 46273  97.3914 300.4851 0004245 267.1184  92.9565 15.18472950108380
Source of the keplerian elements: AFSPC